Regional Weather Roundup
Issued by NWS

Home | Current Version | Previous Version | Graphics & Text | Print | Product List | Glossary Off
Versions: 1 2 3 4 5 6 7 8 9 10 11 12 13 14 15 16 17 18 19 20 21 22 23 24 25 26 27 28 29 30 31 32 33 34 35 36 37 38 39 40 41 42 43 44 45 46 47 48 49 50

949
ASUS43 KMKX 220321
RWRWI

WISCONSIN REGIONAL WEATHER ROUNDUP
NATIONAL WEATHER SERVICE MILWAUKEE/SULLIVAN WI
1000 PM CDT MON AUG 21 2017

NOTE: "FAIR" INDICATES FEW OR NO CLOUDS BELOW 12,000 FEET WITH NO
SIGNIFICANT WEATHER AND/OR OBSTRUCTIONS TO VISIBILITY.

WIZ001-002-006>008-014>016-023>028-220400-
NORTHWEST WISCONSIN

CITY           SKY/WX    TMP DP  RH WIND       PRES   REMARKS
SUPERIOR ARPT    N/A     61  60  97 NE3       29.81S
ASHLAND        CLOUDY    62  58  86 N6        29.82R
HAYWARD        CLOUDY    69  64  84 SW7       29.83S
SIREN          CLOUDY    68  63  82 W10       29.84R
CUMBERLAND     CLOUDY    64  63  94 SW6       29.84F
RICE LAKE      CLOUDY    65  63  92 S6        29.87R
CHETEK         CLOUDY    65  63  94 MISG      29.87R
LADYSMITH      CLOUDY    67  65  92 SW7       29.88R
EAU CLAIRE     CLOUDY    68  63  84 S3        29.87R
MENOMONIE      CLOUDY    66  63  92 S3        29.88R
NEW RICHMOND   CLOUDY    66  64  93 SW5       29.85F
OSCEOLA        CLOUDY    67  67 100 SW9       29.87S
$$

WIZ003>005-009-010-017-018-220400-
NORTH CENTRAL WISCONSIN

CITY           SKY/WX    TMP DP  RH WIND       PRES   REMARKS
MANITOWISH WTR CLOUDY    66  66 100 SW3       29.84S
ARBOR VITAE    CLOUDY    67  66  95 CALM      29.84S
WOODRUFF       CLOUDY    67  66  95 CALM      29.84S
RHINELANDER    CLOUDY    67  67 100 SW7       29.86F
EAGLE RIVER    CLOUDY    64  64 100 SW3       29.84S
LAND O LAKES   CLOUDY    65  65 100 CALM      29.85F
PHILLIPS       CLOUDY    68  68 100 SW5       29.85S
TOMAHAWK         N/A     65  64  96 CALM      29.86S
MEDFORD        CLOUDY    66  64  92 SW6       29.88R
MERRILL        CLOUDY    66  66 100 SW8       29.86F
$$

WIZ029-030-035-036-043>047-220400-
CENTRAL WISCONSIN

CITY           SKY/WX    TMP DP  RH WIND       PRES   REMARKS
WAUSAU         MOCLDY    68  63  84 W15G21    29.86R
MOSINEE        CLEAR     66  64  94 W10G18    29.88R
MARSHFIELD     MOCLDY    66  63  90 W6        29.88R
STEVENS POINT  CLOUDY    66  66  98 W9        29.88R
WAUPACA        CLOUDY    72  68  86 CALM      29.82F
WAUTOMA        LGT RAIN  70  67  90 S3        29.83F
WISC RAPIDS    CLOUDY    68  66  93 NW15      29.89R
CAMP DOUGLAS   CLOUDY    66  65  97 NW5       29.86R
$$

WIZ011>013-019>022-031-037>040-048>050-220400-
NORTHEAST WISCONSIN

CITY           SKY/WX    TMP DP  RH WIND       PRES   REMARKS
ANTIGO         CLOUDY    66  66  99 W6        29.87R
SHAWANO        CLOUDY    74  66  76 CALM      29.82F
OCONTO         CLOUDY    73  66  77 S3        29.81F
STURGEON BAY   PTCLDY    71  68  90 S8        29.83F
GREEN BAY      CLOUDY    73  71  93 S5        29.83F
MANITOWOC        N/A    N/A N/A N/A MISG        N/A
APPLETON       PTCLDY    72  68  88 SW7       29.84F
CLINTONVILLE   CLOUDY    72  63  73 S6        29.82F
OSHKOSH        CLOUDY    72  68  87 S8        29.84F
$$

WIZ032>034-041-042-053>061-220400-
SOUTHWEST WISCONSIN

CITY           SKY/WX    TMP DP  RH WIND       PRES   REMARKS
LA CROSSE      CLOUDY    69  65  86 NW9       29.88R
SPARTA         CLOUDY    64  63  96 NW5       29.89R
VIROQUA        CLOUDY    64  64 100 CALM      29.87R
BOSCOBEL       CLOUDY    70  66  87 SW6       29.84F
PRAIRIE DU CHI CLOUDY    68  64  88 S8        29.85R
PLATTEVILLE    CLOUDY    70  70 100 SE10      29.85F
$$

WIZ056-057-062-063-064-067-068-220400-
SOUTH CENTRAL WISCONSIN

CITY           SKY/WX    TMP DP  RH WIND       PRES   REMARKS
REEDSBURG      CLOUDY    69  69 100 S6        29.81F
BARABOO/DELLS  LGT RAIN  70  65  85 S16       29.81F
LONE ROCK      CLOUDY    71  68  90 SE9       29.81F
MINERAL POINT  LGT RAIN  70  70 100 SE9       29.86F
MADISON        CLOUDY    74  68  81 S10       29.88F
MIDDLETON      CLOUDY    73  69  86 S9        29.90F
WATERTOWN      MOCLDY    71  71  98 SW9       29.90F
MONROE         CLOUDY    72  68  88 S8        29.93F
JANESVILLE     CLOUDY    73  72  94 SW9       29.92F
$$

WIZ051-052-058>065-066-070>072-220400-
SOUTHEAST WISCONSIN

CITY           SKY/WX    TMP DP  RH WIND       PRES   REMARKS
MILWAUKEE      CLOUDY    76  69  79 SW10      29.90F
WAUKESHA       NOT AVBL
MILWAUKEE/TIMM CLOUDY    73  64  73 SW6       29.90F
RACINE         CLOUDY    76  70  82 SW9       29.92F
KENOSHA        CLOUDY    76  69  79 SW9       29.92F
FOND DU LAC    CLOUDY    72  65  78 SW7       29.86F
SHEBOYGAN      CLOUDY    70  70 100 SW7       29.86F
WEST BEND      CLOUDY    70  68  94 SW7       29.88F
JUNEAU         CLOUDY    71  67  87 S7        29.90F
$$

LSZ147-162-220400-
LAKE SUPERIOR

STATION/POSITION TIME  TEMP    WIND        PRES    WAVE
                       AIR SEA DIR/SP/G            HT/PER
                 (UTC) (F)     (DEG/KT/KT) (MB)    (FT/S)
W MID LAKE BUOY  0250   61 60  350/  4/  6 1010.0R   0
DEVILS ISLAND    0300   59      80/  9/ 11 1009.7F
PORT WING        0207   63      50/ 18     1009.8
SAXON HARBOR     0240   65     330/ 10/ 11 1008.8S
$$

LMZ867-665-643>646-220400-
LAKE MICHIGAN

STATION/POSITION TIME  TEMP    WIND        PRES    WAVE
                       AIR SEA DIR/SP/G            HT/PER
                 (UTC) (F)     (DEG/KT/KT) (MB)    (FT/S)
S GREEN BAY BUOY 0300   73 72  180/ 14/ 16 1009.4
N MID LAKE BUOY  0250   70 68  200/ 16/ 19 1010.2F   2/ 3
NORTHPORT PIER   0240   71     170/  5/  9 1009.8F
KEWAUNEE LAKESHO 0300   68     180/  9/ 10 1009.6
SHEBOYGAN LAKESH 0300   74     190/  9/ 10 1010.5F
PORT WASHINGTON  0240   74     240/  4/  6 1012.9F
ATWATER BUOY     0209   76 69  210/ 10/ 14 1013.1F
MILWAUKEE LAKESH 0300   76     210/ 11/ 12   N/A
S MID LAKE BUOY  0250   76 72  250/ 14/ 16 1013.0F   1/ 3
KENOSHA   LAKESH 0300   77     220/  9/ 14 1012.5
$$

TC  - TEMPERATURE IN CELSIUS
VSB - VISIBILITY IN STATUTE MILES
WCI - WIND CHILL INDEX
HX  - HEAT INDEX





USA.gov is the U.S. government's official web portal to all federal, state and local government web resources and services.